カタログに戻る

KUIPER-00134

運用中通信VLEO
NORAD 65960·PAYLOAD·🇺🇸 United States

打ち上げ Oct 14, 2025 から Cape Canaveral Space Force Station

Loading…

次のパス (今後24時間)

TLE

最新Source: CelesTrak SupGP

元期: Sep 14, 2026, 18:08 UTC

1 65960C 25228P   26257.75561343 -.00001681  00000+0 -44385-4 0  2573
2 65960  51.8695 122.4419 0003822 250.4231 156.8238 15.37850970    16

AllMySatでKUIPER-00134をリアルタイム追跡

Download on the App Store